| time (UTC) | temp C | wind direction | speed KPH | gust KPH | rain 1hr cm | rain 24hr cm | rain mn cm | humidity % | barometer mb |
| 20260901051541 | 23 | 0 | 0.0 | 4.8 | 0.00 | 0.41 | 0.00 | 89 | 1014.9 |
| 20260901050041 | 23 | 231 | 0.0 | 3.2 | 0.00 | 0.41 | 0.00 | 89 | 1014.9 |
| 20260901044539 | 23 | 231 | 0.0 | 6.4 | 0.00 | 0.41 | 0.00 | 88 | 1014.9 |
| 20260901043042 | 23 | 229 | 3.2 | 6.4 | 0.00 | 0.41 | 0.00 | 88 | 1014.8 |
| 20260901041540 | 23 | 262 | 1.6 | 6.4 | 0.00 | 0.41 | 0.00 | 89 | 1014.7 |
| 20260901040044 | 23 | 193 | 1.6 | 14.5 | 0.00 | 0.41 | 0.00 | 88 | 1014.5 |
| 20260901034541 | 23 | 234 | 0.0 | 6.4 | 0.00 | 0.41 | 0.41 | 88 | 1014.7 |
| 20260901033041 | 23 | 229 | 3.2 | 9.7 | 0.00 | 0.41 | 0.41 | 87 | 1015.1 |
| 20260901031542 | 23 | 221 | 3.2 | 8.0 | 0.00 | 0.41 | 0.41 | 87 | 1015.1 |
| 20260901030040 | 22 | 189 | 3.2 | 8.0 | 0.00 | 0.41 | 0.41 | 87 | 1015.1 |
| 20260901024541 | 22 | 243 | 0.0 | 6.4 | 0.00 | 0.41 | 0.41 | 87 | 1015.4 |
| 20260901023043 | 22 | 145 | 0.0 | 3.2 | 0.00 | 0.41 | 0.41 | 87 | 1015.1 |
| 20260901021544 | 22 | 224 | 1.6 | 4.8 | 0.00 | 0.41 | 0.41 | 86 | 1015.0 |
| 20260901020047 | 22 | 194 | 0.0 | 6.4 | 0.00 | 0.41 | 0.41 | 85 | 1015.0 |
| 20260901014543 | 22 | 210 | 1.6 | 8.0 | 0.00 | 0.41 | 0.41 | 85 | 1014.9 |
| 20260901013039 | 22 | 0 | 0.0 | 6.4 | 0.00 | 0.41 | 0.41 | 84 | 1014.9 |
| 20260901011542 | 22 | 150 | 1.6 | 9.7 | 0.00 | 0.41 | 0.41 | 84 | 1014.6 |
| 20260901010043 | 23 | 101 | 3.2 | 6.4 | 0.00 | 0.41 | 0.41 | 83 | 1014.6 |
| 20260901004555 | 22 | 0 | 0.0 | 12.9 | 0.00 | 0.41 | 0.41 | 83 | 1014.6 |
| 20260901003039 | 22 | 211 | 3.2 | 14.5 | 0.00 | 0.41 | 0.41 | 84 | 1014.4 |
| 20260901001542 | 22 | 142 | 3.2 | 9.7 | 0.00 | 0.41 | 0.41 | 85 | 1014.1 |
| 20260901000100 | 22 | 184 | 1.6 | 9.7 | 0.00 | 0.41 | 0.41 | 86 | 1014.0 |
| 20260831234543 | 22 | 115 | 3.2 | 9.7 | 0.00 | 0.41 | 0.41 | 87 | 1014.2 |
| 20260831233042 | 22 | 199 | 3.2 | 9.7 | 0.00 | 0.41 | 0.41 | 87 | 1014.4 |
| 20260831231548 | 22 | 109 | 1.6 | 6.4 | 0.03 | 0.41 | 0.41 | 87 | 1014.4 |
| 20260831230039 | 22 | 143 | 1.6 | 9.7 | 0.05 | 0.41 | 0.41 | 87 | 1014.5 |
| 20260831224543 | 22 | 173 | 4.8 | 17.7 | 0.08 | 0.41 | 0.41 | 88 | 1014.8 |
| 20260831223047 | 22 | 91 | 6.4 | 19.3 | 0.10 | 0.41 | 0.41 | 88 | 1014.7 |
| 20260831221546 | 22 | 151 | 4.8 | 11.3 | 0.13 | 0.38 | 0.38 | 91 | 1015.2 |
| 20260831220041 | 22 | 262 | 4.8 | 11.3 | 0.13 | 0.36 | 0.36 | 92 | 1016.0 |
| 20260831214552 | 22 | 131 | 3.2 | 6.4 | 0.10 | 0.58 | 0.33 | 92 | 1016.2 |
| 20260831213050 | 22 | 122 | 1.6 | 1.6 | 0.23 | 0.56 | 0.30 | 90 | 1016.2 |
| 20260831211545 | 22 | 0 | 0.0 | 4.8 | 0.25 | 0.51 | 0.25 | 89 | 1016.4 |
| 20260831210041 | 23 | 140 | 1.6 | 6.4 | 0.23 | 0.48 | 0.23 | 87 | 1016.1 |
| 20260831204547 | 24 | 272 | 4.8 | 12.9 | 0.23 | 0.48 | 0.23 | 84 | 1016.4 |
| 20260831203046 | 26 | 0 | 0.0 | 6.4 | 0.08 | 0.33 | 0.08 | 79 | 1017.1 |
| 20260831201541 | 27 | 250 | 1.6 | 4.8 | 0.00 | 0.25 | 0.00 | 73 | 1016.9 |
| 20260831200040 | 28 | 170 | 1.6 | 6.4 | 0.00 | 0.25 | 0.00 | 70 | 1016.3 |
| 20260831194616 | 28 | 138 | 1.6 | 9.7 | 0.00 | 0.25 | 0.00 | 70 | 1016.4 |
| 20260831193044 | 29 | 125 | 3.2 | 9.7 | 0.00 | 0.25 | 0.00 | 67 | 1016.3 |
| 20260831191542 | 29 | 136 | 4.8 | 17.7 | 0.00 | 0.25 | 0.00 | 66 | 1016.3 |
| 20260831190054 | 29 | 98 | 8.0 | 16.1 | 0.00 | 0.25 | 0.00 | 65 | 1016.2 |
| 20260831184547 | 28 | 104 | 4.8 | 11.3 | 0.00 | 0.25 | 0.00 | 71 | 1016.3 |
| 20260831183046 | 28 | 160 | 3.2 | 12.9 | 0.00 | 0.25 | 0.00 | 68 | 1016.6 |
| 20260831181547 | 28 | 141 | 4.8 | 12.9 | 0.00 | 0.25 | 0.00 | 69 | 1016.6 |
| 20260831180049 | 27 | 158 | 1.6 | 8.0 | 0.00 | 0.25 | 0.00 | 73 | 1016.9 |
| 20260831174541 | 26 | 108 | 4.8 | 8.0 | 0.00 | 0.25 | 0.00 | 76 | 1016.9 |
| 20260831173040 | 26 | 149 | 3.2 | 6.4 | 0.00 | 0.25 | 0.00 | 78 | 1017.2 |
| 20260831171546 | 25 | 160 | 0.0 | 3.2 | 0.00 | 0.25 | 0.00 | 83 | 1017.3 |
| 20260831170040 | 23 | 0 | 0.0 | 3.2 | 0.00 | 0.25 | 0.00 | 88 | 1017.5 |
| 20260831164555 | 23 | 116 | 3.2 | 4.8 | 0.00 | 0.25 | 0.00 | 89 | 1017.0 |
| 20260831163040 | 23 | 0 | 0.0 | 0.0 | 0.00 | 0.25 | 0.00 | 87 | 1018.2 |
| 20260831161547 | 23 | 0 | 0.0 | 0.0 | 0.00 | 0.25 | 0.00 | 90 | 1018.4 |
| 20260831160043 | 23 | 0 | 0.0 | 1.6 | 0.00 | 0.25 | 0.00 | 87 | 1018.5 |
| 20260831154649 | 23 | 0 | 0.0 | 3.2 | 0.00 | 0.28 | 0.00 | 83 | 1018.4 |
| 20260831153049 | 24 | 246 | 1.6 | 8.0 | 0.00 | 0.28 | 0.00 | 80 | 1018.1 |
| 20260831151540 | 24 | 262 | 3.2 | 9.7 | 0.00 | 0.28 | 0.00 | 80 | 1018.0 |
| 20260831150042 | 23 | 308 | 1.6 | 9.7 | 0.00 | 0.28 | 0.00 | 82 | 1017.9 |
| 20260831144548 | 23 | 250 | 1.6 | 8.0 | 0.00 | 0.43 | 0.00 | 82 | 1017.8 |
| 20260831143105 | 24 | 258 | 3.2 | 12.9 | 0.00 | 0.43 | 0.00 | 82 | 1017.5 |
| 20260831141553 | 23 | 235 | 3.2 | 9.7 | 0.00 | 0.43 | 0.00 | 85 | 1017.4 |
| 20260831140052 | 23 | 280 | 1.6 | 8.0 | 0.00 | 0.43 | 0.00 | 85 | 1017.6 |
| 20260831134542 | 22 | 263 | 1.6 | 6.4 | 0.00 | 0.79 | 0.00 | 86 | 1017.5 |
| 20260831133047 | 22 | 268 | 3.2 | 8.0 | 0.00 | 0.79 | 0.00 | 85 | 1017.3 |
| 20260831131539 | 22 | 214 | 0.0 | 8.0 | 0.00 | 0.79 | 0.00 | 87 | 1017.1 |
| 20260831130043 | 22 | 180 | 0.0 | 6.4 | 0.00 | 0.79 | 0.00 | 88 | 1017.3 |
| 20260831124539 | 22 | 217 | 1.6 | 6.4 | 0.00 | 1.02 | 0.00 | 88 | 1017.0 |
| 20260831123041 | 21 | 0 | 1.6 | 4.8 | 0.00 | 1.02 | 0.00 | 90 | 1017.1 |
| 20260831121542 | 21 | 0 | 0.0 | 1.6 | 0.00 | 1.02 | 0.00 | 91 | 1017.1 |
| 20260831120044 | 20 | 0 | 0.0 | 0.0 | 0.00 | 1.02 | 0.00 | 92 | 1016.8 |
| 20260831114542 | 20 | 0 | 0.0 | 0.0 | 0.00 | 1.02 | 0.00 | 92 | 1016.9 |
| 20260831113048 | 20 | 0 | 0.0 | 1.6 | 0.00 | 1.02 | 0.00 | 92 | 1016.9 |
| 20260831111541 | 20 | 0 | 0.0 | 1.6 | 0.00 | 1.02 | 0.00 | 92 | 1016.8 |
| 20260831110042 | 20 | 0 | 0.0 | 0.0 | 0.00 | 1.02 | 0.00 | 91 | 1016.9 |
| 20260831104537 | 20 | 0 | 0.0 | 0.0 | 0.00 | 1.02 | 0.00 | 91 | 1017.0 |
| 20260831103048 | 20 | 0 | 0.0 | 1.6 | 0.00 | 1.02 | 0.00 | 91 | 1016.9 |
| 20260831101551 | 20 | 0 | 0.0 | 1.6 | 0.00 | 1.02 | 0.00 | 90 | 1016.8 |
| 20260831100056 | 20 | 0 | 0.0 | 3.2 | 0.00 | 1.02 | 0.00 | 90 | 1016.8 |
| 20260831094542 | 21 | 0 | 0.0 | 3.2 | 0.00 | 1.02 | 0.00 | 89 | 1016.7 |
| 20260831093049 | 21 | 165 | 0.0 | 1.6 | 0.00 | 1.02 | 0.00 | 89 | 1016.8 |
| 20260831091541 | 21 | 0 | 0.0 | 1.6 | 0.00 | 1.02 | 0.00 | 89 | 1016.5 |
| 20260831090101 | 21 | 0 | 0.0 | 4.8 | 0.00 | 1.02 | 0.00 | 88 | 1016.7 |
| 20260831084541 | 21 | 0 | 0.0 | 4.8 | 0.00 | 1.12 | 0.00 | 89 | 1016.5 |
| 20260831083041 | 21 | 0 | 0.0 | 8.0 | 0.00 | 1.12 | 0.00 | 89 | 1016.5 |
| 20260831081542 | 21 | 0 | 0.0 | 4.8 | 0.00 | 1.12 | 0.00 | 89 | 1016.4 |
| 20260831080044 | 20 | 250 | 0.0 | 6.4 | 0.00 | 1.12 | 0.00 | 89 | 1016.3 |
| 20260831074541 | 20 | 246 | 0.0 | 3.2 | 0.00 | 1.12 | 0.00 | 90 | 1016.4 |
| 20260831073042 | 20 | 246 | 1.6 | 8.0 | 0.00 | 1.12 | 0.00 | 91 | 1016.5 |
| 20260831071541 | 20 | 255 | 0.0 | 1.6 | 0.00 | 1.12 | 0.00 | 91 | 1016.9 |
| 20260831070042 | 20 | 259 | 0.0 | 1.6 | 0.00 | 1.12 | 0.00 | 91 | 1017.1 |
| 20260831064547 | 20 | 0 | 0.0 | 1.6 | 0.00 | 1.12 | 0.00 | 92 | 1017.3 |
| 20260831063040 | 20 | 0 | 0.0 | 3.2 | 0.00 | 1.12 | 0.00 | 92 | 1017.3 |
| 20260831061553 | 20 | 0 | 0.0 | 3.2 | 0.00 | 1.12 | 0.00 | 93 | 1017.4 |
| 20260831060042 | 20 | 0 | 0.0 | 0.0 | 0.00 | 1.12 | 0.00 | 93 | 1017.5 |
| 20260831054545 | 20 | 0 | 0.0 | 0.0 | 0.00 | 1.12 | 0.00 | 93 | 1017.4 |
| 20260831053042 | 20 | 0 | 0.0 | 0.0 | 0.00 | 1.12 | 0.00 | 92 | 1017.6 |